Regional Weather Roundup
Issued by NWS

Home | Current Version | Previous Version | Graphics & Text | Print | Product List | Glossary On
Versions: 1 2 3 4 5 6 7 8 9 10 11 12 13 14 15 16 17 18 19 20 21 22 23 24 25 26 27 28 29 30 31 32 33 34 35 36 37 38 39 40 41 42 43 44 45 46 47 48 49 50
111
ASUS45 KSLC 230010
RWRUT

UTAH REGIONAL WEATHER ROUNDUP
NATIONAL WEATHER SERVICE SALT LAKE CITY UT
600 PM MDT SAT APR 22 2017

UTZ001>011-023>025-230100-

NORTHERN UTAH

CITY           SKY/WX    TMP DP  RH WIND       PRES   REMARKS
BRIGHAM CITY   PTSUNNY   58  29  33 S5        30.08F
HILL AFB       PTSUNNY   57  32  38 NW8       30.08S
LOGAN          MOSUNNY   59  36  42 N8        30.06F
OGDEN          PTSUNNY   58  31  35 W8        30.07F
SALT LAKE CITY PTSUNNY   62  35  36 NW9       30.06F
TOOELE VALLEY  MOSUNNY   55  34  44 N3        30.07F
WENDOVER       CLOUDY    58  21  24 CALM      30.06F
HEBER CITY     PTSUNNY   61  23  23 CALM      30.07S
WEST JORDAN    MOSUNNY   65  41  41 SE5       30.07F

$$

UTZ011>015-024>027-230100-

CENTRAL/NORTHEAST UTAH

CITY           SKY/WX    TMP DP  RH WIND       PRES   REMARKS
PROVO AIRPORT  MOSUNNY   61  37  41 CALM      30.08F
MOAB/CANYONLAN SUNNY     67  14  13 VRB6      30.07F
DELTA          SUNNY     61  23  23 W3        30.07F
PRICE          SUNNY     58  15  18 MISG      30.13F
ROOSEVELT      SUNNY     59  16  18 E5        30.15F
VERNAL         SUNNY     58  19  22 SW6       30.13F

$$

UTZ013>016-019>022-027-230100-

SOUTHERN UTAH

CITY           SKY/WX    TMP DP  RH WIND       PRES   REMARKS
BRYCE CANYON   MOSUNNY   57  19  22 S10       30.18R
CEDAR CITY     MOSUNNY   64  28  25 VRB3      30.06F
MILFORD        MOSUNNY   65  24  21 NE10      30.05F
ST GEORGE      MOCLDY    79  24  13 NW7       29.95F
HANKSVILLE     SUNNY     64  14  14 E5        30.11F
BLANDING       SUNNY     63  18  17 SW8       30.18S

$$

REGIONAL REPORTS     COLORADO/ARIZONA

CITY           SKY/WX    TMP DP  RH WIND       PRES   REMARKS
CRAIG, CO      SUNNY     58  18  21 S9        30.14F
GRAND JUNCTION SUNNY     65  15  14 MISG      30.09S
RIFLE, CO      SUNNY     62  17  17 CALM      30.12S
MONTROSE, CO   SUNNY     61  13  15 W5        30.13F
CORTEZ, CO     SUNNY     65  16  15 VRB7      30.11S
COLORADO CITY    N/A     75  25  15 W3        30.07F
PAGE, AZ       SUNNY     69  15  12 NE7       30.06F
GRAND CANYON   SUNNY     69  23  17 VRB5      30.13F
KINGMAN, AZ    SUNNY     83  25  12 N3        29.94F
FLAGSTAFF, AZ  SUNNY     68  20  16 S9        30.13S

$$

REGIONAL REPORTS    NEVADA/IDAHO/WYOMING

CITY           SKY/WX    TMP DP  RH WIND       PRES   REMARKS
LAS VEGAS, NV  MOSUNNY   83  17   8 VRB3      29.89F
ELY, NY        CLOUDY    62  29  28 SE14G26   30.04F
ELKO, NV       CLOUDY    65  32  29 N8        29.96F
POCATELLO, ID  CLOUDY    60  25  26 S20G26    30.04F
BURLEY, ID     PTSUNNY   62  26  25 S17G24    29.97F
FORT BRIDGER,    N/A     57  23  26 NE5       30.15F
EVANSTON, WY   SUNNY     54  23  30 VRB6      30.12F
ROCK SPRINGS,  SUNNY     56  13  18 VRB7      30.13F
KEMMERER, WY     N/A     52  19  28 SE5       30.14F

$$




USA.gov is the U.S. government's official web portal to all federal, state and local government web resources and services.